DW2147 Weather Reports


Display with metric or nautical units.
time (UTC)temp
F
wind
direction
speed
MPH
gust
MPH
rain 1hr
in
rain 24hr
in
rain mn
in
humidity
%
barometer
mb
20260505011027 67 0 4.0 10.0 0.00 0.00 0.00 52 1009.8
20260505010527 67 0 5.0 11.0 0.00 0.00 0.00 53 1009.6
20260505010024 67 0 5.0 11.0 0.00 0.00 0.00 53 1009.5
20260505005524 67 0 5.0 10.0 0.00 0.00 0.00 52 1009.4
20260505005023 67 0 5.0 10.0 0.00 0.00 0.00 52 1009.4
20260505004524 68 0 5.0 11.0 0.00 0.00 0.00 51 1009.3
20260505004023 68 0 5.0 11.0 0.00 0.00 0.00 51 1009.3
20260505003523 68 0 5.0 10.0 0.00 0.00 0.00 51 1009.4
20260505003024 68 0 4.0 9.0 0.00 0.00 0.00 51 1009.3
20260505002524 68 0 4.0 8.0 0.00 0.00 0.00 51 1009.3
20260505002022 68 0 3.0 8.0 0.00 0.00 0.00 51 1009.1
20260505001522 68 0 4.0 8.0 0.00 0.00 0.00 50 1009.3
20260505001019 69 0 6.0 13.0 0.00 0.00 0.00 50 1009.3
20260505000520 69 0 6.0 13.0 0.00 0.00 0.00 50 1009.1
20260505000019 69 0 5.0 12.0 0.00 0.00 0.00 50 1009.1
20260504235515 69 0 5.0 12.0 0.00 0.00 0.00 50 1009.3
20260504235016 69 0 5.0 9.0 0.00 0.00 0.00 50 1009.3
20260504234515 69 0 5.0 12.0 0.00 0.00 0.00 49 1009.4
20260504234015 69 0 5.0 14.0 0.00 0.00 0.00 50 1009.4
20260504233514 69 0 6.0 14.0 0.00 0.00 0.00 49 1009.6
20260504233012 70 0 6.0 14.0 0.00 0.00 0.00 49 1009.6
20260504232744 70 0 4.0 9.0 0.00 0.00 0.00 49 1009.5
20260504232011 70 0 3.0 6.0 0.00 0.00 0.00 48 1009.4
20260504231513 70 0 4.0 11.0 0.00 0.00 0.00 48 1009.4
20260504231012 70 0 5.0 13.0 0.00 0.00 0.00 49 1009.5
20260504230511 70 0 5.0 13.0 0.00 0.00 0.00 48 1009.7
20260504230013 70 0 6.0 19.0 0.00 0.00 0.00 49 1009.7
20260504225510 71 0 6.0 19.0 0.00 0.00 0.00 47 1009.7
20260504225008 71 0 4.0 12.0 0.00 0.00 0.00 47 1009.7
20260504224507 71 155 4.0 10.0 0.00 0.00 0.00 48 1009.7
20260504224007 71 0 4.0 10.0 0.00 0.00 0.00 48 1009.9
20260504223508 71 0 5.0 12.0 0.00 0.00 0.00 49 1009.9
20260504223007 71 0 6.0 12.0 0.00 0.00 0.00 47 1009.8
20260504222506 71 0 6.0 13.0 0.00 0.00 0.00 48 1009.7
20260504222006 71 0 7.0 13.0 0.00 0.00 0.00 47 1009.6
20260504221507 71 0 8.0 14.0 0.00 0.00 0.00 47 1009.5
20260504221007 71 0 7.0 15.0 0.00 0.00 0.00 47 1009.6
20260504220506 71 0 8.0 16.0 0.00 0.00 0.00 47 1009.5
20260504220004 71 0 8.0 16.0 0.00 0.00 0.00 46 1009.5
20260504215501 71 0 7.0 16.0 0.00 0.00 0.00 47 1009.5
20260504215001 71 0 7.0 15.0 0.00 0.00 0.00 48 1009.4
20260504214500 71 0 9.0 16.0 0.00 0.00 0.00 47 1009.4
20260504214000 71 0 8.0 16.0 0.00 0.00 0.00 46 1009.6
20260504213458 71 0 7.0 14.0 0.00 0.00 0.00 48 1009.5
20260504212958 71 0 7.0 16.0 0.00 0.00 0.00 46 1009.5
20260504212458 71 0 7.0 16.0 0.00 0.00 0.00 47 1009.6
20260504211956 71 0 9.0 19.0 0.00 0.00 0.00 46 1009.5
20260504211459 72 0 8.0 19.0 0.00 0.00 0.00 45 1009.4
20260504210956 72 0 7.0 17.0 0.00 0.00 0.00 46 1009.6
20260504210726 72 0 6.0 12.0 0.00 0.00 0.00 45 1009.5
20260504210226 72 0 6.0 12.0 0.00 0.00 0.00 48 1009.6
20260504205453 72 0 6.0 13.0 0.00 0.00 0.00 46 1009.6
20260504204954 72 0 8.0 20.0 0.00 0.00 0.00 46 1009.7
20260504204450 72 0 10.0 20.0 0.00 0.00 0.00 50 1009.7
20260504203950 72 0 8.0 15.0 0.00 0.00 0.00 46 1009.7
20260504203450 72 0 8.0 15.0 0.00 0.00 0.00 45 1009.8
20260504203223 72 0 8.0 15.0 0.00 0.00 0.00 45 1009.8
20260504202449 73 0 8.0 18.0 0.00 0.00 0.00 47 1009.6
20260504201948 73 0 7.0 18.0 0.00 0.00 0.00 47 1009.8
20260504201449 72 0 7.0 15.0 0.00 0.00 0.00 45 1009.8
20260504200947 73 0 7.0 15.0 0.00 0.00 0.00 44 1009.8
20260504200448 73 0 8.0 20.0 0.00 0.00 0.00 46 1009.9
20260504195945 72 0 9.0 20.0 0.00 0.00 0.00 45 1009.9
20260504195718 72 0 10.0 21.0 0.00 0.00 0.00 46 1009.8
20260504194946 72 0 11.0 26.0 0.00 0.00 0.00 46 1009.8
20260504194444 72 0 12.0 26.0 0.00 0.00 0.00 47 1010.0
20260504193944 72 0 14.0 22.0 0.00 0.00 0.00 48 1009.8
20260504193444 73 0 11.0 22.0 0.00 0.00 0.00 47 1009.9
20260504192944 73 0 8.0 17.0 0.00 0.00 0.00 47 1010.0
20260504192446 73 0 9.0 19.0 0.00 0.00 0.00 46 1010.0
20260504191944 73 0 10.0 20.0 0.00 0.00 0.00 47 1010.1
20260504191444 73 0 8.0 20.0 0.00 0.00 0.00 48 1010.2
20260504190942 72 0 10.0 25.0 0.00 0.00 0.00 49 1010.1
20260504190444 71 0 11.0 23.0 0.00 0.00 0.00 50 1010.1
20260504190439 71 0 13.0 25.0 0.00 0.00 0.00 47 1010.2
20260504185439 71 0 11.0 19.0 0.00 0.00 0.00 47 1010.3
20260504184939 71 0 10.0 20.0 0.00 0.00 0.00 46 1010.4
20260504184438 72 0 8.0 20.0 0.00 0.00 0.00 46 1010.5
20260504184210 73 0 9.0 17.0 0.00 0.00 0.00 44 1010.6
20260504183712 73 0 9.0 17.0 0.00 0.00 0.00 45 1010.6
20260504182938 73 0 8.0 16.0 0.00 0.00 0.00 45 1010.6
20260504182439 73 0 7.0 18.0 0.00 0.00 0.00 47 1010.7
20260504181944 72 0 7.0 16.0 0.00 0.00 0.00 45 1010.8
20260504181939 72 0 7.0 18.0 0.00 0.00 0.00 44 1010.7
20260504180937 72 0 8.0 15.0 0.00 0.00 0.00 47 1010.7
20260504180437 72 0 8.0 16.0 0.00 0.00 0.00 47 1010.8
20260504175937 71 0 9.0 18.0 0.00 0.00 0.00 45 1010.8
20260504175438 71 0 9.0 18.0 0.00 0.00 0.00 49 1011.0
20260504174938 71 0 9.0 17.0 0.00 0.00 0.00 47 1010.9
20260504174435 70 0 10.0 25.0 0.00 0.00 0.00 48 1011.0
20260504173938 70 0 10.0 25.0 0.00 0.00 0.00 46 1011.2
20260504173436 70 0 8.0 19.0 0.00 0.00 0.00 46 1011.2
20260504172938 71 0 7.0 16.0 0.00 0.00 0.00 46 1011.2
20260504172434 71 0 7.0 16.0 0.00 0.00 0.00 45 1011.2
20260504171934 71 0 10.0 20.0 0.00 0.00 0.00 45 1011.4
20260504171703 71 0 10.0 20.0 0.00 0.00 0.00 47 1011.2
20260504170930 71 0 8.0 15.0 0.00 0.00 0.00 46 1011.2
20260504170430 71 0 8.0 16.0 0.00 0.00 0.00 47 1011.3
20260504170201 70 0 10.0 21.0 0.00 0.00 0.00 49 1011.3
20260504160422 68 0 10.0 18.0 0.00 0.00 0.00 48 1012.2
20260504150913 65 0 9.0 23.0 0.00 0.00 0.00 47 1012.8
20260504150414 65 0 7.0 17.0 0.00 0.00 0.00 49 1013.0
20260504140640 63 0 10.0 17.0 0.00 0.00 0.00 47 1012.8
20260504130407 59 0 8.0 17.0 0.00 0.00 0.00 52 1012.9
20260504110352 51 0 5.0 11.0 0.00 0.00 0.00 57 1012.8
20260504100340 51 0 4.0 9.0 0.00 0.00 0.00 53 1012.8
20260504081825 50 0 4.0 9.0 0.00 0.00 0.00 52 1013.7
20260504081326 50 0 3.0 9.0 0.00 0.00 0.00 52 1013.5
20260504080828 50 0 3.0 6.0 0.00 0.00 0.00 52 1013.6
20260504080325 50 0 3.0 6.0 0.00 0.00 0.00 52 1013.5
20260504070310 50 0 3.0 6.0 0.00 0.00 0.00 52 1013.8
20260504050751 46 0 2.0 5.0 0.00 0.00 0.00 59 1014.5
20260504050252 45 0 2.0 5.0 0.00 0.00 0.00 60 1014.4
20260504045753 44 0 2.0 4.0 0.00 0.00 0.00 62 1014.4
20260504045747 45 0 2.0 5.0 0.00 0.00 0.00 61 1014.4
20260504045403 44 0 1.0 4.0 0.00 0.00 0.00 64 1014.4
20260504044245 43 0 1.0 4.0 0.00 0.00 0.00 65 1014.5
20260504043744 43 0 2.0 4.0 0.00 0.00 0.00 65 1014.5
20260504043246 43 0 2.0 4.0 0.00 0.00 0.00 65 1014.4
20260504042738 42 0 1.0 4.0 0.00 0.00 0.00 66 1014.4
20260504042238 42 0 1.0 4.0 0.00 0.00 0.00 66 1014.4
20260504042004 42 0 0.0 2.0 0.00 0.00 0.00 66 1014.4
20260504041232 42 0 0.0 0.0 0.00 0.00 0.00 66 1014.4
20260504040731 43 0 0.0 0.0 0.00 0.00 0.00 65 1014.4
20260504040229 43 0 0.0 0.0 0.00 0.00 0.00 65 1014.4
20260504035954 43 0 0.0 0.0 0.00 0.00 0.00 65 1014.4
20260504035222 43 0 0.0 0.0 0.00 0.00 0.00 65 1014.5
20260504034720 43 0 0.0 0.0 0.00 0.00 0.00 65 1014.5
20260504034220 43 0 0.0 0.0 0.00 0.00 0.00 64 1014.5
20260504033722 43 0 0.0 0.0 0.00 0.00 0.00 64 1014.5
20260504033217 44 0 0.0 0.0 0.00 0.00 0.00 64 1014.5
20260504032716 44 0 0.0 0.0 0.00 0.00 0.00 64 1014.4
20260504032216 44 0 0.0 0.0 0.00 0.00 0.00 64 1014.5
20260504031717 44 0 0.0 0.0 0.00 0.00 0.00 63 1014.5
20260504031216 44 0 0.0 0.0 0.00 0.00 0.00 63 1014.6
20260504030718 44 0 0.0 0.0 0.00 0.00 0.00 63 1014.8
20260504030213 45 0 0.0 0.0 0.00 0.00 0.00 62 1014.6
20260504025713 45 0 0.0 0.0 0.00 0.00 0.00 62 1014.6
20260504025213 45 0 0.0 0.0 0.00 0.00 0.00 62 1014.6
20260504024714 46 0 0.0 0.0 0.00 0.00 0.00 61 1014.6
20260504024213 46 0 0.0 0.0 0.00 0.00 0.00 61 1014.8
20260504023945 46 0 0.0 0.0 0.00 0.00 0.00 60 1014.8
20260504023208 46 0 0.0 0.0 0.00 0.00 0.00 61 1014.6
20260504022708 47 0 0.0 0.0 0.00 0.00 0.00 61 1014.6
20260504022213 47 0 0.0 0.0 0.00 0.00 0.00 60 1014.5
20260504022208 47 0 0.0 0.0 0.00 0.00 0.00 60 1014.5
20260504021209 47 0 0.0 0.0 0.00 0.00 0.00 60 1014.5
20260504020710 48 0 0.0 0.0 0.00 0.00 0.00 59 1014.5
20260504020204 48 0 0.0 0.0 0.00 0.00 0.00 59 1014.4
20260504015705 48 224 0.0 0.0 0.00 0.00 0.00 58 1014.5
20260504015440 49 224 0.0 0.0 0.00 0.00 0.00 57 1014.8
20260504015204 49 224 0.0 0.0 0.00 0.00 0.00 57 1014.8
20260504014202 49 224 0.0 0.0 0.00 0.00 0.00 56 1014.9
20260504013703 49 224 0.0 3.0 0.00 0.00 0.00 55 1014.9
20260504013205 50 224 1.0 3.0 0.00 0.00 0.00 55 1014.8
20260504012702 50 0 0.0 3.0 0.00 0.00 0.00 55 1014.9
20260504012202 50 227 0.0 0.0 0.00 0.00 0.00 54 1014.9
20260504011700 51 227 0.0 0.0 0.00 0.00 0.00 53 1014.9